RYR6PS LHBP-EKCH

Flight info

Callsign RYR6PS
Flight time 1h 35m
Altitude 38000
Route LITKU Y301 KALIF DCT BILNA DCT REGLI L617 ADVAB L619 DENKO L996 ROE M743 TIDVU
Aircraft B738/M-SDE2E3FGHIRWXY/LB1

Departure

Time 2026-05-05 17:09
Airport Budapest Liszt Ferenc International Airport (LHBP)

Arrival

Time 2026-05-05 18:44
Airport Copenhagen Kastrup Airport (EKCH)
Time Latitude Longitude Altitude Speed Heading
2026-05-05 16:41 47.43449 19.26169 456 ft 0 kts 177°
2026-05-05 17:00 47.43453 19.26169 456 ft 3 kts 177°
2026-05-05 17:01 47.43480 19.26167 456 ft 4 kts 177°
2026-05-05 17:01 47.43507 19.26165 453 ft 4 kts 177°
2026-05-05 17:01 47.43533 19.26163 455 ft 3 kts 177°
2026-05-05 17:01 47.43556 19.26163 453 ft 4 kts 195°
2026-05-05 17:02 47.43578 19.26182 454 ft 4 kts 228°
2026-05-05 17:02 47.43592 19.26204 454 ft 1 kts 222°
2026-05-05 17:02 47.43595 19.26208 455 ft 0 kts 222°
2026-05-05 17:04 47.43594 19.26204 454 ft 0 kts 246°
2026-05-05 17:04 47.43597 19.26198 452 ft 1 kts 301°
2026-05-05 17:05 47.43622 19.26154 456 ft 11 kts 310°
2026-05-05 17:05 47.43672 19.26067 456 ft 11 kts 313°
2026-05-05 17:05 47.43736 19.25969 456 ft 15 kts 322°
2026-05-05 17:05 47.43818 19.26012 456 ft 14 kts 41°
2026-05-05 17:06 47.43895 19.26117 456 ft 16 kts 43°
2026-05-05 17:06 47.43984 19.26103 457 ft 14 kts 312°
2026-05-05 17:06 47.44056 19.25987 457 ft 16 kts 312°
2026-05-05 17:06 47.44138 19.25851 457 ft 19 kts 311°
2026-05-05 17:07 47.44227 19.25709 457 ft 18 kts 312°
2026-05-05 17:07 47.44312 19.25583 457 ft 17 kts 331°
2026-05-05 17:07 47.44421 19.25567 459 ft 16 kts 13°
2026-05-05 17:07 47.44497 19.25668 470 ft 15 kts 67°
2026-05-05 17:08 47.44503 19.25820 475 ft 15 kts 116°
2026-05-05 17:08 47.44463 19.25890 475 ft 25 kts 131°
2026-05-05 17:08 47.44169 19.26364 471 ft 98 kts 132°
2026-05-05 17:08 47.43561 19.27341 468 ft 158 kts 132°
2026-05-05 17:09 47.42805 19.28662 893 ft 175 kts 131°
2026-05-05 17:09 47.42051 19.30073 1714 ft 170 kts 131°
2026-05-05 17:09 47.41518 19.31569 2630 ft 167 kts 121°
2026-05-05 17:09 47.40958 19.33163 3154 ft 179 kts 125°
2026-05-05 17:10 47.40333 19.34741 3878 ft 180 kts 126°
2026-05-05 17:10 47.39647 19.36441 4192 ft 207 kts 125°
2026-05-05 17:10 47.38877 19.38371 4384 ft 230 kts 124°
2026-05-05 17:10 47.38370 19.40724 4627 ft 256 kts 92°
2026-05-05 17:11 47.38860 19.43373 4886 ft 284 kts 58°
2026-05-05 17:11 47.40145 19.45605 5637 ft 288 kts 45°
2026-05-05 17:11 47.41611 19.47660 6378 ft 294 kts 43°
2026-05-05 17:11 47.43129 19.49718 7057 ft 299 kts 43°
2026-05-05 17:12 47.44665 19.51816 7750 ft 302 kts 45°
2026-05-05 17:12 47.46208 19.53954 8464 ft 306 kts 45°
2026-05-05 17:12 47.47743 19.56105 9201 ft 310 kts 45°
2026-05-05 17:12 47.49316 19.58325 9898 ft 315 kts 46°
2026-05-05 17:13 47.50970 19.60509 10388 ft 329 kts 34°
2026-05-05 17:13 47.53172 19.61715 10535 ft 351 kts
2026-05-05 17:13 47.55680 19.61721 10726 ft 370 kts 355°
2026-05-05 17:13 47.58306 19.61485 11080 ft 383 kts 354°
2026-05-05 17:14 47.60982 19.61221 11694 ft 387 kts 354°
2026-05-05 17:14 47.63685 19.60988 12376 ft 391 kts 355°
2026-05-05 17:14 47.66411 19.60793 13075 ft 394 kts 356°
2026-05-05 17:14 47.69172 19.60632 13766 ft 398 kts 356°
2026-05-05 17:15 47.71908 19.60495 14431 ft 400 kts 356°
2026-05-05 17:15 47.74699 19.60370 15204 ft 400 kts 356°
2026-05-05 17:15 47.77483 19.60253 15956 ft 401 kts 357°
2026-05-05 17:15 47.80281 19.60138 16680 ft 402 kts 357°
2026-05-05 17:16 47.83092 19.60023 17394 ft 404 kts 356°
2026-05-05 17:16 47.85917 19.59908 18031 ft 408 kts 357°
2026-05-05 17:16 47.88731 19.59792 18627 ft 410 kts 356°
2026-05-05 17:16 47.91590 19.59674 19222 ft 412 kts 356°
2026-05-05 17:17 47.94465 19.59555 19809 ft 414 kts 356°
2026-05-05 17:17 47.97355 19.59435 20361 ft 417 kts 356°
2026-05-05 17:17 48.00264 19.59314 20909 ft 419 kts 356°
2026-05-05 17:17 48.03195 19.59192 21460 ft 422 kts 356°
2026-05-05 17:18 48.06142 19.59069 21988 ft 424 kts 356°
2026-05-05 17:18 48.09109 19.58945 22423 ft 429 kts 356°
2026-05-05 17:18 48.12070 19.58821 22901 ft 432 kts 356°
2026-05-05 17:18 48.15072 19.58695 23452 ft 433 kts 356°
2026-05-05 17:19 48.18097 19.58569 23893 ft 435 kts 356°
2026-05-05 17:19 48.21134 19.58441 24251 ft 438 kts 356°
2026-05-05 17:19 48.24194 19.58313 24626 ft 441 kts 356°
2026-05-05 17:19 48.27276 19.58184 25024 ft 443 kts 356°
2026-05-05 17:20 48.30371 19.58054 25348 ft 447 kts 356°
2026-05-05 17:20 48.33501 19.57921 25634 ft 452 kts 356°
2026-05-05 17:20 48.36652 19.57789 26014 ft 454 kts 356°
2026-05-05 17:20 48.39777 19.57658 26412 ft 455 kts 356°
2026-05-05 17:21 48.42951 19.57524 26741 ft 458 kts 356°
2026-05-05 17:21 48.46141 19.57373 27093 ft 459 kts 354°
2026-05-05 17:21 48.49284 19.56600 27400 ft 458 kts 341°
2026-05-05 17:22 48.54909 19.52167 27939 ft 457 kts 318°
2026-05-05 17:22 48.57357 19.49105 28251 ft 459 kts 317°
2026-05-05 17:22 48.59807 19.45981 28569 ft 461 kts 317°
2026-05-05 17:22 48.62258 19.42849 28926 ft 462 kts 317°
2026-05-05 17:23 48.64714 19.39730 29375 ft 460 kts 318°
2026-05-05 17:23 48.67174 19.36628 29771 ft 460 kts 318°
2026-05-05 17:23 48.69629 19.33545 30168 ft 459 kts 318°
2026-05-05 17:23 48.72057 19.30505 30547 ft 457 kts 318°
2026-05-05 17:24 48.74503 19.27444 30942 ft 455 kts 318°
2026-05-05 17:24 48.76939 19.24393 31312 ft 454 kts 318°
2026-05-05 17:24 48.79368 19.21347 31670 ft 453 kts 318°
2026-05-05 17:24 48.81796 19.18297 31995 ft 452 kts 317°
2026-05-05 17:25 48.84219 19.15247 32247 ft 453 kts 318°
2026-05-05 17:25 48.85825 19.13224 32497 ft 451 kts 317°
2026-05-05 17:25 48.89022 19.09194 33293 ft 442 kts 317°
2026-05-05 17:25 48.91387 19.06207 33571 ft 442 kts 318°
2026-05-05 17:26 48.93759 19.03204 33761 ft 445 kts 317°
2026-05-05 17:26 48.96134 19.00195 34059 ft 443 kts 317°
2026-05-05 17:26 48.98501 18.97193 34308 ft 443 kts 318°
2026-05-05 17:26 49.00843 18.94218 34512 ft 443 kts 317°
2026-05-05 17:27 49.03205 18.91214 34822 ft 441 kts 317°
2026-05-05 17:27 49.05554 18.88225 35054 ft 441 kts 317°
2026-05-05 17:27 49.07915 18.85214 35246 ft 442 kts 318°
2026-05-05 17:27 49.10278 18.82198 35405 ft 443 kts 318°
2026-05-05 17:28 49.12641 18.79177 35663 ft 443 kts 318°
2026-05-05 17:28 49.14996 18.76164 35983 ft 440 kts 317°
2026-05-05 17:28 49.17334 18.73169 36293 ft 438 kts 317°
2026-05-05 17:28 49.19675 18.70166 36472 ft 439 kts 318°
2026-05-05 17:29 49.22017 18.67156 36588 ft 441 kts 317°
2026-05-05 17:29 49.24362 18.64140 36836 ft 440 kts 317°
2026-05-05 17:29 49.26700 18.61129 37154 ft 437 kts 317°
2026-05-05 17:29 49.29016 18.58142 37407 ft 436 kts 317°
2026-05-05 17:30 49.31343 18.55136 37536 ft 437 kts 317°
2026-05-05 17:30 49.33674 18.52122 37669 ft 439 kts 317°
2026-05-05 17:30 49.36004 18.49107 37867 ft 438 kts 317°
2026-05-05 17:31 49.40932 18.43486 37852 ft 444 kts 330°
2026-05-05 17:31 49.46512 18.39536 37836 ft 443 kts 333°
2026-05-05 17:32 49.52136 18.35718 37808 ft 440 kts 333°
2026-05-05 17:32 49.57721 18.31844 37791 ft 439 kts 333°
2026-05-05 17:33 49.63268 18.27937 37799 ft 437 kts 332°
2026-05-05 17:33 49.68803 18.24018 37808 ft 438 kts 332°
2026-05-05 17:34 49.74361 18.20073 37810 ft 440 kts 332°
2026-05-05 17:34 49.79900 18.16134 37806 ft 442 kts 333°
2026-05-05 17:35 49.85501 18.12141 37805 ft 444 kts 333°
2026-05-05 17:35 49.91132 18.08117 37800 ft 446 kts 333°
2026-05-05 17:36 49.96775 18.04074 37788 ft 447 kts 333°
2026-05-05 17:36 50.02438 18.00009 37782 ft 448 kts 333°
2026-05-05 17:37 50.08213 17.96421 37784 ft 449 kts 338°
2026-05-05 17:37 50.14098 17.93134 37774 ft 449 kts 338°
2026-05-05 17:38 50.19967 17.89800 37784 ft 448 kts 337°
2026-05-05 17:38 50.24820 17.86990 37768 ft 447 kts 337°
2026-05-05 17:39 50.31587 17.83045 37766 ft 445 kts 337°
2026-05-05 17:39 50.36448 17.80208 37778 ft 444 kts 336°
2026-05-05 17:40 50.42208 17.76834 37766 ft 443 kts 336°
2026-05-05 17:40 50.47980 17.73441 37767 ft 442 kts 336°
2026-05-05 17:41 50.53741 17.70044 37748 ft 442 kts 336°
2026-05-05 17:41 50.59501 17.66640 37747 ft 442 kts 336°
2026-05-05 17:42 50.65262 17.63226 37763 ft 441 kts 336°
2026-05-05 17:42 50.70973 17.59832 37755 ft 442 kts 336°
2026-05-05 17:43 50.76735 17.56401 37759 ft 442 kts 336°
2026-05-05 17:43 50.82516 17.53014 37762 ft 444 kts 336°
2026-05-05 17:44 50.88325 17.49610 37755 ft 444 kts 336°
2026-05-05 17:44 50.94095 17.46144 37751 ft 445 kts 336°
2026-05-05 17:45 50.99895 17.42644 37761 ft 446 kts 335°
2026-05-05 17:45 51.05708 17.39134 37758 ft 447 kts 335°
2026-05-05 17:46 51.11528 17.35616 37757 ft 448 kts 335°
2026-05-05 17:46 51.17357 17.32082 37779 ft 448 kts 335°
2026-05-05 17:47 51.23151 17.28567 37770 ft 448 kts 335°
2026-05-05 17:47 51.28980 17.25024 37767 ft 448 kts 335°
2026-05-05 17:48 51.34799 17.21475 37775 ft 446 kts 335°
2026-05-05 17:48 51.40594 17.17930 37779 ft 445 kts 335°
2026-05-05 17:49 51.46373 17.14386 37779 ft 444 kts 335°
2026-05-05 17:49 51.52105 17.10862 37798 ft 443 kts 335°
2026-05-05 17:50 51.57863 17.07314 37795 ft 442 kts 334°
2026-05-05 17:50 51.63605 17.03765 37791 ft 442 kts 334°
2026-05-05 17:51 51.69342 17.00211 37791 ft 441 kts 334°
2026-05-05 17:51 51.75063 16.96652 37797 ft 440 kts 334°
2026-05-05 17:52 51.80775 16.93082 37809 ft 440 kts 334°
2026-05-05 17:52 51.86492 16.89500 37800 ft 440 kts 334°
2026-05-05 17:53 51.92166 16.85936 37803 ft 440 kts 334°
2026-05-05 17:53 51.97905 16.82321 37825 ft 440 kts 334°
2026-05-05 17:54 52.03583 16.78734 37812 ft 440 kts 334°
2026-05-05 17:54 52.09295 16.75118 37818 ft 441 kts 334°
2026-05-05 17:55 52.14740 16.70775 37822 ft 431 kts 319°
2026-05-05 17:55 52.19427 16.64765 37824 ft 428 kts 316°
2026-05-05 17:56 52.24083 16.58667 37830 ft 428 kts 317°
2026-05-05 17:56 52.28752 16.52609 37843 ft 428 kts 317°
2026-05-05 17:57 52.33394 16.46608 37824 ft 428 kts 317°
2026-05-05 17:57 52.38062 16.40566 37828 ft 428 kts 317°
2026-05-05 17:58 52.42734 16.34499 37835 ft 428 kts 317°
2026-05-05 17:58 52.47396 16.28427 37833 ft 428 kts 317°
2026-05-05 17:59 52.52065 16.22329 37838 ft 428 kts 317°
2026-05-05 17:59 52.56697 16.16268 37844 ft 428 kts 316°
2026-05-05 18:00 52.61358 16.10161 37837 ft 429 kts 316°
2026-05-05 18:00 52.66026 16.04028 37866 ft 429 kts 316°
2026-05-05 18:01 52.70690 15.97882 37850 ft 429 kts 316°
2026-05-05 18:01 52.75355 15.91717 37839 ft 430 kts 316°
2026-05-05 18:02 52.80023 15.85534 37844 ft 430 kts 317°
2026-05-05 18:02 52.85215 15.80460 37861 ft 439 kts 330°
2026-05-05 18:03 52.90774 15.76416 37848 ft 439 kts 330°
2026-05-05 18:03 52.96351 15.72286 37870 ft 439 kts 330°
2026-05-05 18:04 53.01907 15.68086 37849 ft 439 kts 330°
2026-05-05 18:04 53.07459 15.63884 37858 ft 438 kts 330°
2026-05-05 18:05 53.13011 15.59688 37849 ft 438 kts 330°
2026-05-05 18:05 53.18556 15.55483 37870 ft 438 kts 330°
2026-05-05 18:06 53.24106 15.51260 37903 ft 438 kts 330°
2026-05-05 18:06 53.29649 15.47031 37873 ft 439 kts 330°
2026-05-05 18:07 53.35205 15.42793 37873 ft 439 kts 330°
2026-05-05 18:07 53.40731 15.38565 37868 ft 439 kts 330°
2026-05-05 18:08 53.46285 15.34269 37874 ft 440 kts 332°
2026-05-05 18:08 53.52244 15.31472 37912 ft 449 kts 343°
2026-05-05 18:09 53.58396 15.29526 37887 ft 449 kts 343°
2026-05-05 18:09 53.64492 15.27438 37881 ft 449 kts 342°
2026-05-05 18:10 53.70618 15.25278 37889 ft 450 kts 342°
2026-05-05 18:10 53.76759 15.23124 37890 ft 450 kts 342°
2026-05-05 18:11 53.82904 15.20975 37905 ft 451 kts 342°
2026-05-05 18:11 53.89062 15.18816 37903 ft 452 kts 342°
2026-05-05 18:12 53.95245 15.16639 37897 ft 453 kts 342°
2026-05-05 18:12 54.01388 15.14469 37897 ft 454 kts 342°
2026-05-05 18:13 54.07573 15.12278 37917 ft 454 kts 342°
2026-05-05 18:13 54.13770 15.10075 37826 ft 456 kts 342°
2026-05-05 18:13 54.16887 15.08963 37514 ft 458 kts 342°
2026-05-05 18:14 54.20003 15.07853 37241 ft 454 kts 341°
2026-05-05 18:14 54.23091 15.06754 36967 ft 450 kts 341°
2026-05-05 18:14 54.26148 15.05660 36707 ft 450 kts 341°
2026-05-05 18:14 54.29215 15.04549 36469 ft 449 kts 341°
2026-05-05 18:15 54.32273 15.03428 36207 ft 449 kts 340°
2026-05-05 18:15 54.35327 15.02305 35994 ft 449 kts 340°
2026-05-05 18:15 54.38380 15.01184 35707 ft 448 kts 340°
2026-05-05 18:15 54.41392 15.00079 35072 ft 448 kts 340°
2026-05-05 18:16 54.44428 14.98972 34491 ft 447 kts 340°
2026-05-05 18:16 54.47483 14.97868 33839 ft 448 kts 339°
2026-05-05 18:16 54.50551 14.96760 33080 ft 449 kts 339°
2026-05-05 18:16 54.53599 14.95658 32473 ft 447 kts 340°
2026-05-05 18:17 54.56629 14.94566 32015 ft 442 kts 340°
2026-05-05 18:17 54.59591 14.93494 31532 ft 438 kts 340°
2026-05-05 18:17 54.62563 14.92415 31109 ft 433 kts 339°
2026-05-05 18:17 54.65501 14.91344 30631 ft 430 kts 339°
2026-05-05 18:18 54.68407 14.90281 30162 ft 426 kts 339°
2026-05-05 18:18 54.71302 14.89220 29665 ft 422 kts 339°
2026-05-05 18:18 54.74170 14.88168 29160 ft 418 kts 339°
2026-05-05 18:18 54.76997 14.87132 28701 ft 413 kts 339°
2026-05-05 18:19 54.79791 14.86106 28234 ft 408 kts 339°
2026-05-05 18:19 54.82553 14.85081 27772 ft 404 kts 339°
2026-05-05 18:19 54.85289 14.84047 27319 ft 400 kts 339°
2026-05-05 18:19 54.87957 14.83030 26895 ft 396 kts 339°
2026-05-05 18:20 54.90638 14.82006 26443 ft 393 kts 340°
2026-05-05 18:20 54.93303 14.80988 25993 ft 390 kts 340°
2026-05-05 18:20 54.95943 14.79979 25552 ft 387 kts 340°
2026-05-05 18:20 54.98564 14.78978 25115 ft 384 kts 340°
2026-05-05 18:21 55.01172 14.77982 24687 ft 382 kts 340°
2026-05-05 18:21 55.03749 14.76955 24253 ft 376 kts 336°
2026-05-05 18:21 55.06008 14.74953 23819 ft 357 kts 315°
2026-05-05 18:21 55.07721 14.71937 23362 ft 346 kts 300°
2026-05-05 18:22 55.08930 14.68360 22882 ft 339 kts 293°
2026-05-05 18:22 55.09983 14.64758 22428 ft 336 kts 292°
2026-05-05 18:22 55.11021 14.61108 21998 ft 333 kts 292°
2026-05-05 18:22 55.12050 14.57486 21563 ft 331 kts 292°
2026-05-05 18:23 55.13075 14.53904 21142 ft 328 kts 292°
2026-05-05 18:23 55.14098 14.50348 20723 ft 326 kts 292°
2026-05-05 18:23 55.15121 14.46805 20311 ft 326 kts 293°
2026-05-05 18:23 55.16145 14.43265 19966 ft 327 kts 293°
2026-05-05 18:24 55.17180 14.39682 19567 ft 335 kts 293°
2026-05-05 18:24 55.18234 14.36037 19089 ft 335 kts 293°
2026-05-05 18:24 55.19287 14.32394 18635 ft 334 kts 293°
2026-05-05 18:24 55.20335 14.28769 18193 ft 333 kts 293°
2026-05-05 18:25 55.21377 14.25158 17718 ft 331 kts 293°
2026-05-05 18:25 55.21714 14.23985 17563 ft 330 kts 293°
2026-05-05 18:25 55.23422 14.18052 16829 ft 326 kts 293°
2026-05-05 18:25 55.24440 14.14507 16412 ft 324 kts 293°
2026-05-05 18:26 55.25446 14.10995 15988 ft 321 kts 293°
2026-05-05 18:26 55.26444 14.07506 15580 ft 319 kts 293°
2026-05-05 18:26 55.27436 14.04040 15169 ft 317 kts 293°
2026-05-05 18:26 55.28422 14.00592 14763 ft 315 kts 293°
2026-05-05 18:27 55.29402 13.97161 14359 ft 314 kts 294°
2026-05-05 18:27 55.30375 13.93750 13955 ft 312 kts 294°
2026-05-05 18:27 55.31347 13.90337 13524 ft 312 kts 294°
2026-05-05 18:27 55.31999 13.88045 13222 ft 311 kts 294°
2026-05-05 18:28 55.33907 13.81321 12398 ft 307 kts 294°
2026-05-05 18:28 55.34814 13.78121 12016 ft 305 kts 294°
2026-05-05 18:29 55.35619 13.75282 11970 ft 278 kts 294°
2026-05-05 18:29 55.36433 13.72415 11959 ft 251 kts 293°
2026-05-05 18:30 55.37180 13.69767 11734 ft 237 kts 293°
2026-05-05 18:30 55.37934 13.67078 10791 ft 256 kts 294°
2026-05-05 18:30 55.38725 13.64265 10641 ft 249 kts 294°
2026-05-05 18:30 55.39490 13.61544 10426 ft 262 kts 294°
2026-05-05 18:31 55.40366 13.58407 10240 ft 298 kts 294°
2026-05-05 18:31 55.41252 13.55162 9993 ft 295 kts 291°
2026-05-05 18:31 55.41803 13.51769 9711 ft 282 kts 274°
2026-05-05 18:31 55.41795 13.48398 9449 ft 271 kts 266°
2026-05-05 18:32 55.41671 13.45144 9166 ft 262 kts 265°
2026-05-05 18:32 55.41533 13.41987 8892 ft 256 kts 265°
2026-05-05 18:32 55.41396 13.38879 8640 ft 254 kts 266°
2026-05-05 18:32 55.41263 13.35776 8377 ft 255 kts 266°
2026-05-05 18:33 55.41131 13.32629 8135 ft 259 kts 266°
2026-05-05 18:33 55.40999 13.29441 7879 ft 263 kts 266°
2026-05-05 18:33 55.40867 13.26234 7629 ft 263 kts 266°
2026-05-05 18:33 55.40735 13.22971 7388 ft 278 kts 266°
2026-05-05 18:34 55.40592 13.19431 7172 ft 299 kts 266°
2026-05-05 18:34 55.40442 13.15763 6893 ft 301 kts 266°
2026-05-05 18:34 55.40291 13.12077 6597 ft 303 kts 267°
2026-05-05 18:34 55.40140 13.08420 6305 ft 305 kts 267°
2026-05-05 18:35 55.39986 13.04685 5996 ft 306 kts 266°
2026-05-05 18:35 55.39831 13.00940 5671 ft 308 kts 267°
2026-05-05 18:35 55.39674 12.97188 5357 ft 306 kts 266°
2026-05-05 18:35 55.39517 12.93472 5070 ft 302 kts 266°
2026-05-05 18:36 55.39360 12.89782 5011 ft 305 kts 266°
2026-05-05 18:36 55.39201 12.86058 4989 ft 303 kts 266°
2026-05-05 18:36 55.39041 12.82358 4977 ft 302 kts 267°
2026-05-05 18:36 55.38881 12.78665 4988 ft 303 kts 267°
2026-05-05 18:37 55.38942 12.75018 4953 ft 300 kts 285°
2026-05-05 18:37 55.39601 12.71618 4916 ft 290 kts 294°
2026-05-05 18:37 55.40361 12.68361 4524 ft 282 kts 295°
2026-05-05 18:37 55.41117 12.65240 4175 ft 272 kts 295°
2026-05-05 18:38 55.41846 12.62229 3839 ft 263 kts 295°
2026-05-05 18:38 55.42549 12.59304 3498 ft 255 kts 295°
2026-05-05 18:38 55.43216 12.56511 3151 ft 238 kts 295°
2026-05-05 18:38 55.43822 12.53929 2838 ft 219 kts 295°
2026-05-05 18:39 55.44366 12.51568 2510 ft 204 kts 295°
2026-05-05 18:39 55.44877 12.49307 2180 ft 194 kts 295°
2026-05-05 18:39 55.45348 12.47164 2006 ft 177 kts 295°
2026-05-05 18:39 55.45965 12.45544 1958 ft 145 kts 333°
2026-05-05 18:40 55.46851 12.45347 2040 ft 129 kts 13°
2026-05-05 18:40 55.47725 12.45742 1995 ft 128 kts 15°
2026-05-05 18:40 55.48584 12.46139 2002 ft 127 kts 15°
2026-05-05 18:40 55.49444 12.46538 1991 ft 128 kts 15°
2026-05-05 18:41 55.50334 12.47011 2011 ft 149 kts 24°
2026-05-05 18:41 55.51213 12.48080 1966 ft 152 kts 36°
2026-05-05 18:41 55.52037 12.49259 1896 ft 154 kts 38°
2026-05-05 18:41 55.52844 12.50493 1705 ft 153 kts 39°
2026-05-05 18:42 55.53635 12.51717 1505 ft 150 kts 39°
2026-05-05 18:42 55.54409 12.52915 1300 ft 143 kts 40°
2026-05-05 18:42 55.55132 12.54035 1121 ft 133 kts 39°
2026-05-05 18:42 55.55807 12.55079 959 ft 126 kts 40°
2026-05-05 18:43 55.56475 12.56114 775 ft 130 kts 38°
2026-05-05 18:43 55.57164 12.57180 573 ft 131 kts 38°
2026-05-05 18:43 55.57859 12.58238 423 ft 132 kts 39°
2026-05-05 18:43 55.58545 12.59321 234 ft 133 kts 37°
2026-05-05 18:44 55.59245 12.60386 68 ft 130 kts 39°
2026-05-05 18:44 55.59896 12.61384 22 ft 112 kts 40°
2026-05-05 18:44 55.60393 12.62156 22 ft 78 kts 41°
2026-05-05 18:44 55.60691 12.62619 25 ft 41 kts 40°
2026-05-05 18:45 55.60872 12.62825 24 ft 20 kts 19°
2026-05-05 18:45 55.60979 12.62869 23 ft 13 kts 12°
2026-05-05 18:45 55.61032 12.62889 23 ft 0 kts 12°
2026-05-05 18:46 55.61046 12.62893 23 ft 5 kts 10°
2026-05-05 18:46 55.61094 12.62909 23 ft 10 kts 14°
2026-05-05 18:46 55.61159 12.62974 25 ft 11 kts 38°
2026-05-05 18:46 55.61231 12.63080 23 ft 16 kts 38°
2026-05-05 18:47 55.61325 12.63220 27 ft 20 kts 41°
2026-05-05 18:47 55.61437 12.63396 26 ft 23 kts 41°
2026-05-05 18:47 55.61562 12.63588 23 ft 24 kts 40°
2026-05-05 18:47 55.61694 12.63788 25 ft 24 kts 42°
2026-05-05 18:48 55.61799 12.63956 27 ft 20 kts 41°
2026-05-05 18:48 55.61911 12.64100 23 ft 20 kts 25°
2026-05-05 18:48 55.62034 12.64202 25 ft 19 kts 25°
2026-05-05 18:48 55.62145 12.64295 22 ft 17 kts 25°
2026-05-05 18:49 55.62242 12.64374 22 ft 12 kts 24°
2026-05-05 18:49 55.62307 12.64421 24 ft 8 kts 47°
2026-05-05 18:49 55.62356 12.64466 23 ft 8 kts 25°
2026-05-05 18:49 55.62372 12.64486 23 ft 1 kts 39°
2026-05-05 18:50 55.62378 12.64503 24 ft 1 kts 65°
2026-05-05 18:50 55.62379 12.64556 23 ft 6 kts 101°
2026-05-05 18:50 55.62372 12.64577 24 ft 1 kts 130°
2026-05-05 18:50 55.62369 12.64583 24 ft 0 kts 130°
2026-05-05 18:51 55.62368 12.64585 25 ft 1 kts 130°
2026-05-05 18:51 55.62365 12.64591 24 ft 0 kts 130°
2026-05-05 18:51 55.62363 12.64597 24 ft 1 kts 128°
2026-05-05 18:51 55.62355 12.64620 23 ft 4 kts 121°
2026-05-05 18:52 55.62336 12.64688 23 ft 9 kts 103°
2026-05-05 18:52 55.62352 12.64807 24 ft 11 kts 80°
2026-05-05 18:52 55.62330 12.64946 23 ft 13 kts 120°
2026-05-05 18:52 55.62284 12.65081 23 ft 11 kts 117°
2026-05-05 18:53 55.62287 12.65160 25 ft 2 kts 66°
2026-05-05 18:53 55.62291 12.65199 23 ft 5 kts 84°
2026-05-05 18:53 55.62296 12.65277 23 ft 8 kts 80°
2026-05-05 18:53 55.62348 12.65333 23 ft 11 kts
2026-05-05 18:54 55.62430 12.65355 23 ft 13 kts 40°
2026-05-05 18:54 55.62444 12.65521 24 ft 15 kts 90°
2026-05-05 18:54 55.62446 12.65712 26 ft 13 kts 86°
2026-05-05 18:54 55.62504 12.65760 23 ft 8 kts 359°
2026-05-05 18:55 55.62523 12.65759 23 ft 0 kts 359°